Regional Weather Roundup
Issued by NWS

Home | Current Version | Previous Version | Graphics & Text | Print | Product List | Glossary On
Versions: 1 2 3 4 5 6 7 8 9 10 11 12 13 14 15 16 17 18 19 20 21 22 23 24 25 26 27 28 29 30 31 32 33 34 35 36 37 38 39 40 41 42 43 44 45 46 47 48 49 50
000
ASUS43 KIND 220009
RWRIN

WEATHER ROUNDUP FOR INDIANA
NATIONAL WEATHER SERVICE INDIANAPOLIS IN
800 PM EDT THU AUG 21 2014

NOTE: "FAIR" INDICATES FEW OR NO CLOUDS BELOW 12,000 FEET WITH NO
SIGNIFICANT WEATHER AND/OR OBSTRUCTIONS TO VISIBILITY.

* - STATION DOES NOT REPORT WEATHER SUCH AS PRECIPITATION OR FOG.

+ - STATION NOT QUALITY CONTROLLED BY THE NATIONAL WEATHER SERVICE.
    USE DATA WITH CAUTION...ESPECIALLY DEWPOINT AND RELATIVE
    HUMIDITY OBSERVATIONS.

INZ001>003-010>013-019-020-220100-
NORTHWEST INDIANA

CITY           SKY/WX    TMP DP  RH WIND       PRES   REMARKS
GARY /AIRPORT/ MOCLDY    75  72  88 SE7       29.91F
KNOX *+        CLOUDY    74  72  92 E9        29.93F
LA PORTE +     CLOUDY    72  72 100 SE5       29.93F
6HR MIN TEMP:  72; 6HR MAX TEMP:  77; 6HR PCP:  0.65;

MICHIGAN CITY+ MOCLDY    73  73 100 SE5       29.92F
MONTICELLO +   LGT RAIN  81  76  84 CALM      29.93S
RENSSELAER +   CLOUDY    72  72 100 NE7       29.95F
VALPARAISO     CLOUDY    73  73 100 E7        29.93F
6HR MIN TEMP:  72; 6HR MAX TEMP:  81; 6HR PCP:  1.13;


$$

LMZ046-743>745-220100-
SOUTHERN LAKE MICHIGAN

STATION/POSITION TIME  TEMP WIND        PRES
                       AIR  DIR/SP/G
                 (UTC) (F)  (DEG/KT/KT) (MB)
BURNS HARBOR     0000   76  140/  6/  9   N/A
MICHIGAN CITY    0000   75  120/  9/ 14   N/A

$$

INZ004-005-014>016-021>024-220100-
NORTH CENTRAL INDIANA

CITY           SKY/WX    TMP DP  RH WIND       PRES   REMARKS
GOSHEN         LGT RAIN  76  72  87 S6        29.97F
6HR MIN TEMP:  76; 6HR MAX TEMP:  81; 6HR PCP:  0.28;

LOGANSPORT +   MOCLDY    77  72  83 CALM      29.96R
PERU/GRISSOM   MOCLDY    81  81 100 S6        29.96R
6HR MIN TEMP:  77; 6HR MAX TEMP:  85;

ROCHESTER +    TSTM      77  75  94 CALM      29.97R
SOUTH BEND     CLOUDY    76  72  87 S10       29.94F
6HR MIN TEMP:  75; 6HR MAX TEMP:  80; 6HR PCP:  0.16;


$$

INZ006>009-017-018-025>027-220100-
NORTHEAST INDIANA

CITY           SKY/WX    TMP DP  RH WIND       PRES   REMARKS
ANGOLA *+      PTCLDY    75  68  78 S3        29.98F
AUBURN +       LGT RAIN  75  72  88 CALM      30.00S
FORT WAYNE     CLOUDY    76  71  85 E3        29.98F THUNDER
6HR MIN TEMP:  72; 6HR MAX TEMP:  79; 6HR PCP: TRACE;

HUNTINGTON +   TSTM      73  73  98 S9        29.97S
6HR MIN TEMP:  72; 6HR MAX TEMP:  78; 6HR PCP:  0.41;


$$

INZ028-029-035-036-043>045-051>053-220100-
WEST CENTRAL INDIANA

CITY           SKY/WX    TMP DP  RH WIND       PRES   REMARKS
GREENCASTLE +  PTCLDY    81  75  83 S3        29.98R
LAFAYETTE      MOCLDY    82  75  79 SW6       29.92S
6HR MIN TEMP:  80; 6HR MAX TEMP:  86;

TERRE HAUTE    PTCLDY    85  75  72 S7        29.95S

$$

INZ030>032-037>040-046>048-054>057-064-065-220100-
CENTRAL INDIANA

CITY           SKY/WX    TMP DP  RH WIND       PRES   REMARKS
CP ATTERBURY + PTCLDY    82  73  74 CALM      29.99R
COLUMBUS       CLEAR     84  75  74 W6        29.98R
FRANKFORT +    PTCLDY    81  75  82 CALM      29.96F
GREENWOOD *+   PTCLDY    84  77  79 SW5       29.99
INDIANAPOLIS   MOCLDY    82  74  76 S10       29.96S
6HR MIN TEMP:  82; 6HR MAX TEMP:  86;

-EAGLE CREEK   PTCLDY    84  73  69 SW7       29.96R
6HR MIN TEMP:  82; 6HR MAX TEMP:  86;

KOKOMO *+      MOCLDY    81  73  78 S3        29.96R
MARION +       CLOUDY    79  73  82 SE6       29.96F HAZE
MT COMFORT *+  PTCLDY    81  77  89 S3        29.98R
SHELBYVILLE    PTCLDY    83  74  74 S3        29.98R
6HR MIN TEMP:  80; 6HR MAX TEMP:  87;

ZIONSVILLE +   CLEAR     82  73  73 S5        29.97S
6HR MIN TEMP:  81; 6HR MAX TEMP:  86;


$$

INZ033-034-041-042-049-050-058-059-220100-
EAST CENTRAL INDIANA

CITY           SKY/WX    TMP DP  RH WIND       PRES   REMARKS
MUNCIE         MOCLDY    81  73  76 S6        29.98R
6HR MIN TEMP:  73; 6HR MAX TEMP:  83; 6HR PCP: TRACE;


$$

INZ060-061-067>069-081>083-085>088-220100-
SOUTHWEST INDIANA

CITY           SKY/WX    TMP DP  RH WIND       PRES   REMARKS
EVANSVILLE     MOCLDY    87  72  60 SW9       29.97F
6HR MIN TEMP:  87; 6HR MAX TEMP:  92;

WASHINGTON +   MOCLDY    85  75  73 SW6       29.95F
6HR MIN TEMP:  85; 6HR MAX TEMP:  89;


$$

INZ062-063-066-070>080-084-089>092-220100-
SOUTH CENTRAL AND SOUTHEAST INDIANA

CITY           SKY/WX    TMP DP  RH WIND       PRES   REMARKS
BLOOMINGTON    MOCLDY    83  75  77 SW5       29.98S
6HR MIN TEMP:  83; 6HR MAX TEMP:  87; 6HR PCP: TRACE;


$$



USA.gov is the U.S. government's official web portal to all federal, state and local government web resources and services.